Airport Information

KAST - Astoria Regional Airport

KAST 251155Z AUTO 00000KT 10SM FEW120 08/03 A2990 RMK AO2 SLP126 T00830033 10083 20044 58031


  • General Information

  • Coordinates: N 46°9'28"/ W 123°52'43"
  • Location: N/A
  • Surveyed Elevation: 15 MSL

Operations

Flow Name Active Runways Conditions

Green background denotes normal operations.


Common Frequencies

Callsign Frequency Position Name

More at the Document Center


Charts